Wind_Speed
35 35 34 32 31 31 29 29 29 29 30 29 28 28 28 27 26 24 23 23 22 21 20 20 19 18 17 16 14 12 10 10 11 12 12 11 11 11 11 11 11 11
35 35 35 32 32 33 32 31 31 30 31 32 30 29 29 28 26 25 24 23 23 22 21 20 19 19 18 18 16 12 8 9 10 11 11 11 11 11 12 11 11 12
35 33 35 33 32 34 32 30 32 32 31 32 31 30 29 28 26 26 25 24 24 23 22 21 20 20 19 18 18 14 10 9 10 11 11 11 11 12 12 12 11 12
35 33 34 32 30 31 30 28 30 32 30 30 31 30 29 28 27 27 25 25 24 24 23 22 21 20 20 19 19 16 12 10 10 10 10 11 11 12 13 13 12 12
36 35 34 32 28 28 29 30 30 30 30 31 31 31 30 29 28 26 26 26 25 25 24 24 23 21 21 20 20 17 13 11 11 10 10 12 12 13 13 14 14 14
35 35 35 33 29 28 30 31 30 30 31 31 31 31 30 29 28 27 27 26 25 25 24 24 24 23 22 21 21 19 15 13 12 12 12 13 13 14 15 15 15 16
33 34 35 33 29 29 31 31 30 31 31 30 30 31 30 29 29 28 28 27 26 25 24 24 24 23 23 22 22 21 19 16 14 13 13 14 13 13 14 16 17 17
32 32 33 31 29 28 29 29 30 32 32 31 30 31 31 30 29 29 29 28 27 26 26 25 24 24 23 22 22 22 21 19 17 16 15 15 15 14 14 16 18 19
31 30 31 31 29 28 29 29 29 29 31 32 31 29 30 31 30 29 30 29 28 27 27 26 25 24 23 23 23 23 22 21 20 20 20 19 18 18 17 17 18 20
31 31 31 31 30 29 28 28 27 26 29 32 31 27 28 32 32 30 30 29 28 28 28 27 26 25 24 24 24 23 23 22 22 23 23 23 22 21 19 19 20 20
31 30 30 31 31 29 29 29 27 25 27 30 29 27 27 30 31 31 30 30 29 28 28 28 28 27 26 25 24 24 24 23 23 24 24 24 25 24 22 22 22 22
31 31 30 31 31 30 28 28 27 25 25 28 29 28 26 27 29 31 31 30 30 29 29 29 29 28 27 27 25 24 24 24 24 25 26 26 26 25 25 24 24 24
32 31 31 31 31 30 28 27 27 26 25 26 27 27 26 25 27 30 32 31 30 30 30 29 29 28 28 28 26 25 26 26 26 25 26 26 27 26 25 24 24 24
32 31 31 31 30 29 29 27 27 27 26 25 26 27 27 26 26 28 31 31 30 30 30 29 29 28 28 28 29 28 27 27 27 27 26 25 26 27 25 24 23 23
31 30 30 32 30 30 32 30 27 27 27 25 27 29 28 27 26 25 27 29 30 29 29 27 26 27 28 29 29 29 28 27 26 27 26 25 25 25 25 24 24 23
32 31 31 34 34 34 36 34 30 28 28 28 29 29 28 27 26 24 25 27 27 27 26 25 25 27 29 30 30 29 27 26 25 27 27 25 25 25 23 23 23 23
36 35 34 35 36 36 36 36 33 29 29 30 30 29 28 27 27 26 25 25 24 24 24 24 25 28 31 31 31 30 28 26 24 25 26 26 25 25 23 22 21 22
35 34 32 33 35 36 35 36 34 30 28 29 29 28 27 27 26 27 27 25 23 23 23 23 25 29 32 32 31 31 30 28 25 23 22 23 24 24 23 21 21 21
33 31 31 32 34 36 35 34 32 29 28 28 27 27 26 26 26 27 26 26 24 24 24 24 24 27 31 32 32 31 31 30 28 25 22 22 22 22 22 22 22 22
32 31 31 31 33 35 34 33 31 29 29 27 26 26 25 26 28 27 26 26 26 25 25 25 25 27 31 32 32 32 31 30 31 29 26 24 24 23 23 23 23 23
33 32 31 31 33 34 33 32 30 29 29 27 26 25 26 27 28 27 26 26 26 26 25 25 27 30 32 33 32 32 31 30 31 31 30 27 26 26 25 25 24 24
33 32 31 31 31 31 30 29 29 29 30 28 26 25 24 25 27 26 26 26 27 27 26 26 28 30 32 34 33 32 31 30 31 32 32 30 28 28 28 27 26 25
32 32 31 30 29 29 29 28 28 29 30 28 27 25 24 24 25 25 26 26 26 27 27 27 28 29 33 34 33 32 31 31 33 33 32 32 31 30 29 28 29 29
32 32 31 30 29 29 29 29 28 28 29 28 27 27 25 25 24 25 25 26 26 26 28 28 27 28 32 34 33 32 32 32 33 33 32 32 32 32 32 31 32 32
33 32 32 31 30 30 30 29 29 29 28 28 27 27 26 24 24 23 24 24 25 26 28 29 26 25 30 33 33 32 32 33 33 32 29 29 29 29 29 30 32 34
32 31 31 30 29 31 30 29 29 28 26 25 25 25 24 23 23 23 22 23 23 24 26 28 26 25 28 31 32 32 32 32 33 31 28 27 27 26 24 24 26 29
Wind_Direction
208 210 211 211 214 215 215 217 218 220 224 225 227 231 234 237 238 237 239 240 243 247 249 248 249 248 247 248 249 246 241 240 238 239 238 234 237 240 245 252 254 257
208 210 211 211 213 216 218 219 220 221 225 229 230 233 237 240 241 239 239 240 242 245 248 249 250 250 247 248 248 241 233 237 237 237 236 233 236 239 242 248 252 256
208 208 210 211 213 217 217 217 221 224 226 230 232 235 239 241 241 240 240 240 242 244 247 248 250 252 249 248 248 242 233 235 236 236 238 236 235 240 242 244 246 251
207 208 210 211 212 215 214 213 218 222 223 227 232 235 237 239 240 241 241 241 242 243 245 248 249 251 251 249 247 243 235 236 238 236 239 240 237 239 242 244 246 248
207 208 209 209 209 210 211 213 216 218 220 225 231 233 235 238 239 240 241 242 243 244 245 247 248 249 251 250 247 243 236 235 238 236 238 239 239 241 243 246 248 249
205 208 210 209 208 209 212 215 216 218 220 223 228 231 233 235 237 238 240 242 243 244 243 245 247 247 248 249 248 244 239 235 236 238 240 239 240 243 246 249 252 252
203 206 209 209 209 211 214 215 216 218 220 221 225 230 231 233 235 237 239 241 242 243 243 244 246 246 245 246 247 246 244 241 239 239 239 240 241 242 245 251 255 255
202 204 207 208 207 210 213 213 215 219 220 220 223 228 231 232 235 237 239 241 241 243 245 245 247 246 244 243 245 247 246 244 244 243 241 242 242 242 244 251 256 259
200 202 204 206 206 208 211 212 214 216 219 221 221 224 229 232 234 236 239 241 241 243 245 246 247 247 243 242 244 246 246 245 247 249 249 248 248 250 251 253 257 262
199 201 202 204 206 208 210 211 212 211 215 221 220 219 225 232 234 235 237 240 241 242 245 246 246 246 244 243 245 247 248 248 250 253 255 255 255 255 255 255 258 262
200 201 202 203 205 208 210 210 209 208 212 218 218 216 221 228 232 233 235 237 239 241 245 246 246 245 244 244 244 247 249 249 251 255 257 258 259 259 259 259 260 261
200 201 202 204 205 207 208 208 208 207 209 214 216 216 218 222 228 232 233 235 238 240 243 245 245 245 245 246 245 245 249 249 250 254 257 258 259 259 260 261 261 263
199 200 201 203 204 205 206 206 207 208 209 212 214 215 216 218 223 230 233 236 238 239 241 243 244 244 245 247 246 244 247 249 250 251 254 256 257 258 257 257 259 261
198 198 200 201 202 202 204 205 206 207 208 210 212 214 216 218 220 226 232 235 236 237 239 240 241 242 243 245 246 245 245 247 249 250 251 252 255 257 256 254 254 256
194 196 199 201 200 202 206 206 205 207 208 208 212 216 217 218 219 221 226 230 232 233 234 233 234 237 239 241 242 243 243 244 246 249 249 249 251 254 254 253 253 253
193 196 199 202 204 207 210 210 209 209 210 210 214 218 218 218 218 217 220 225 227 228 229 227 228 233 238 240 240 240 241 241 243 247 249 249 249 251 251 251 252 253
197 200 202 205 207 210 212 213 212 211 212 214 216 218 218 218 217 217 218 221 222 223 224 224 227 235 240 242 242 242 241 240 241 246 248 249 249 250 250 250 251 254
198 199 201 204 207 209 211 213 213 210 211 214 215 216 216 216 217 218 220 221 220 222 224 224 229 237 241 243 244 244 243 241 240 242 244 246 246 247 249 250 251 254
195 195 198 201 205 208 210 210 210 209 211 212 213 214 215 216 218 219 220 220 220 221 224 226 231 238 243 245 245 245 244 242 241 241 241 243 245 245 247 249 250 253
194 194 197 200 203 206 207 208 208 209 211 212 213 213 213 215 218 219 219 220 220 222 225 228 232 238 243 246 246 245 245 243 242 242 241 243 245 246 246 247 249 252
194 195 197 199 202 204 205 206 207 208 209 211 212 212 213 216 219 219 220 221 221 223 225 229 233 238 242 245 246 245 244 243 243 243 242 244 245 245 246 247 249 250
194 195 197 198 199 201 202 204 205 207 209 210 211 213 215 217 219 219 220 221 222 222 224 229 234 237 240 244 246 245 242 241 242 242 242 243 244 246 246 248 250 249
193 194 196 197 197 198 201 203 205 207 209 209 210 213 215 216 217 219 220 221 222 220 222 227 232 236 239 242 244 243 239 238 239 240 241 243 245 247 248 249 251 251
193 194 195 195 196 198 201 204 205 208 209 209 210 213 216 217 218 219 220 221 221 220 222 226 229 234 239 242 242 241 238 237 238 238 239 242 245 248 250 252 255 256
193 195 196 196 197 199 202 204 207 209 210 210 211 214 216 218 219 218 219 221 221 222 226 228 229 232 238 242 242 240 237 235 235 235 236 239 243 247 249 252 255 258
195 196 196 197 199 201 204 206 208 210 209 208 211 214 217 219 219 218 220 222 222 223 226 228 227 229 235 241 241 239 236 234 232 232 232 235 239 242 244 248 251 256
Height
817 819 822 824 826 828 831 833 835 838 840 841 843 845 846 848 850 852 854 855 857 858 859 861 862 864 865 866 868 868 869 870 871 871 872 872 873 873 874 874 875 875
814 816 819 822 823 826 828 830 833 835 837 839 841 842 844 846 848 849 851 853 855 856 857 859 860 861 863 864 865 867 868 869 869 870 870 870 871 871 872 873 873 874
811 814 816 819 820 823 825 828 830 832 834 836 838 840 842 844 846 847 849 850 852 854 855 857 858 859 860 862 863 865 866 867 868 868 868 869 869 870 870 871 871 872
808 811 813 816 818 820 823 825 827 829 832 834 835 838 840 842 843 845 847 848 850 852 853 855 856 857 858 860 861 863 864 865 866 866 867 867 867 868 868 869 869 870
805 807 810 813 815 818 820 822 824 826 829 831 832 835 837 839 841 843 844 846 847 849 851 852 854 855 856 858 859 860 862 863 864 864 865 865 865 865 866 867 867 867
802 804 807 810 812 815 817 819 822 823 826 828 830 832 834 837 839 840 842 843 845 847 848 850 851 853 854 855 857 858 859 861 861 862 862 863 863 863 864 864 864 865
798 801 804 807 809 812 814 816 819 820 823 825 827 829 831 834 836 837 839 841 842 844 845 847 848 850 852 853 855 856 857 858 859 859 860 860 861 861 861 862 862 862
794 797 801 804 806 809 811 813 816 817 820 823 824 827 828 831 833 834 836 838 840 841 842 844 845 847 849 850 852 853 854 855 856 857 857 857 858 858 858 859 859 859
791 794 797 800 803 805 807 810 812 814 817 819 822 824 826 828 830 832 833 835 837 838 839 841 842 844 846 847 849 850 851 853 853 854 854 855 855 855 856 857 857 857
787 790 793 796 799 801 803 806 809 811 814 816 819 821 822 824 826 828 830 832 834 835 836 838 839 841 843 844 846 847 848 850 850 851 851 852 852 853 853 854 854 854
784 786 789 792 795 797 800 803 806 808 810 812 815 818 819 821 823 825 827 828 830 832 833 835 836 838 840 841 843 844 845 847 848 848 849 849 849 850 851 851 852 852
780 783 785 788 791 794 796 799 802 805 807 809 811 814 816 818 819 821 823 825 826 828 830 831 833 835 837 838 840 841 842 844 845 845 846 846 847 847 848 848 849 849
775 778 781 784 787 790 793 796 798 801 803 805 807 810 812 814 816 817 819 821 823 825 826 828 830 832 834 835 837 838 840 841 842 842 843 843 844 844 845 845 846 846
770 774 777 780 783 786 789 792 795 797 800 802 804 806 808 810 812 814 816 818 820 821 823 825 827 829 830 832 833 835 836 837 838 839 840 840 840 841 842 842 843 843
766 770 773 776 780 782 785 788 791 794 796 799 800 802 805 807 809 811 813 814 816 817 819 821 823 825 826 828 829 831 833 834 835 836 836 837 837 838 838 839 839 840
762 766 769 772 776 778 781 785 788 790 793 795 797 799 802 804 806 808 810 811 813 814 816 818 819 820 821 823 825 827 829 831 832 832 833 834 834 835 835 836 836 837
758 762 765 769 772 775 778 781 784 787 789 792 794 796 799 801 803 805 806 808 809 811 813 814 815 815 817 819 821 823 826 828 829 829 830 830 831 831 832 833 833 833
755 759 762 765 768 771 775 777 781 783 786 788 791 793 795 798 800 801 803 805 807 808 809 810 811 811 813 815 817 819 821 824 825 826 827 827 828 828 829 830 830 831
752 756 759 762 765 768 771 774 777 780 782 785 787 790 792 794 796 798 800 802 803 804 806 807 807 808 809 811 813 815 817 820 821 823 823 824 824 825 826 826 827 827
749 752 755 759 761 765 768 770 773 776 778 782 784 787 789 790 792 795 796 798 799 801 802 803 804 804 805 807 809 811 813 816 817 819 820 820 820 821 822 822 823 824
745 748 752 755 758 761 764 766 769 772 775 778 781 783 785 786 788 791 792 794 796 797 798 799 800 800 802 803 805 807 810 812 813 814 815 816 816 817 818 818 819 820
741 745 748 751 754 757 760 763 766 768 771 774 777 779 781 782 784 786 788 790 791 793 794 795 795 796 798 799 801 804 806 808 809 810 811 812 812 813 814 814 815 816
737 740 743 747 750 753 756 759 761 764 767 770 773 775 777 779 780 782 783 785 786 788 789 790 791 792 793 795 797 800 803 804 805 806 807 808 808 809 810 810 811 812
733 736 739 743 746 748 752 755 757 760 763 765 768 770 772 774 776 777 779 780 781 783 784 785 786 788 789 791 793 796 798 800 801 803 803 804 804 805 806 806 806 807
729 732 735 738 741 744 747 750 753 756 758 761 764 766 768 770 772 773 774 775 777 778 779 781 782 784 785 786 789 791 794 796 797 799 799 800 801 801 802 802 802 802
726 729 732 734 737 740 743 746 749 752 755 757 760 762 764 766 767 769 770 771 772 774 775 776 778 779 780 781 784 786 789 791 793 794 795 796 797 798 798 798 798 798